Home
แกลเลอรี่ถามมาตอบไปซื้อมาขายไปของสะสม


สมัครสมาชิกฟรี
สำหรับสมาชิก
Login:
รหัสผ่าน:



ค้นหา:


เลขที่กระทู้ กระทู้ คนตั้ง วันที่ตั้ง คนอ่าน คนตอบ
#03194 กราบแทบพระบาทส่งเสด็จสู่สวรรคาลัย pisutshop.com 10/16/2016 8:13:56 AM 1444 0
#01740 Records To Record ตอนที่3 "Moderndog " pisutshop.com 10/13/2008 9:33:47 AM 1698 7
#01677 Records To Record ตอนที่2 "พวงร้อย" pisutshop.com 7/9/2008 9:43:42 AM 1764 13
#01639 Records To Record ตอนที่1 "สายชล" pisutshop.com 5/20/2008 3:08:21 PM 1577 6
ดูกระทู้ทั้งหมดของ PISUTSHOP.COM
#01960 ถามเรื่องเพลงหน่อยครับ Ekarajk 5/21/2009 3:03:39 PM 1186 6
#01958 JBL ! (James B. Lansing) nippershop 5/20/2009 8:45:46 PM 1186 2
#01954 LINN SONDEK LP 12 play classical music. nippershop 5/19/2009 9:39:40 AM 1187 1
#01953 TECHNICS 1200MK2, The Greatest Japanese Turntable nippershop 5/18/2009 4:52:52 PM 1191 4
#01951 THORENS TD 160 , the greatest suppension nippershop 5/18/2009 4:43:18 PM 1194 1
#01947 Clearing record with streaming method by VPI nippershop 5/18/2009 3:25:12 PM 1178 1
#01944 MICRO SEIKI Turntable nippershop 5/18/2009 3:16:38 PM 1173 1
#01943 LUXMAN Turntable + Mcintosh play " I only have eyes for you" nippershop 5/18/2009 8:22:12 AM 1174 1
#01942 Wooden Turntable & Chinese song pder 5/17/2009 10:09:32 PM 1166 4
#01941 Thorens 124 play Benny Goodman nippershop 5/17/2009 11:01:55 AM 1186 1
#01932 ให้ข้อมูล เกี๋ยวกับ Paypal เผื่อซื้อแผ่นจากต่างประเทศครับ Nane 5/13/2009 11:14:57 AM 1171 1
#01930 GOLDEN OLDIES เพราะๆครับ rainbowman 5/12/2009 8:27:31 PM 1177 13
#01926 แผ่นเสียงงอ มีวิธีแก้อย่างไรครับ job 5/8/2009 11:39:43 AM 1211 2
#01924 พาเที่ยวร้านแผ่นเสียง DISK UNION ที่ประเทศญี่ปุ่น nippershop 5/7/2009 3:31:44 PM 2679 14
#01922 Pepito มิวสิคเก่าจาก Los Machucambos น้าเล็กนอนดึก 5/5/2009 4:07:38 PM 1176 4
#01921 วอนลมฝากรัก Sayonara Sayonara จาก Youtube น้าเล็กนอนดึก 5/5/2009 3:55:28 PM 1164 5
#01919 ร้านขายเครื่องเสียงที่เยอรมัน puikrub 5/4/2009 1:40:06 PM 1421 9
#01918 แผ่นสปีด78เพลงไทย-จีน POK 5/3/2009 5:31:14 PM 1177 11
#01917 เรื่องเล่า ขำขำ(หรือเปล่า) จากคลองถม วันนี้ vinyllover 5/2/2009 10:38:20 PM 1176 6
#01916 เรื่องและภาพของ Pan Wan Ching / Rebecca Pan ที่หลายคนอยากรู้จัก น้าเล็กนอนดึก 5/2/2009 9:22:32 AM 1238 10
#01906 โชว์ปกแผ่นเสียงสีหวานกับรูปวาดสุเทพ POK 4/24/2009 2:17:45 PM 1177 5
#01898 มือใหม่ขอถามเครื่อง Marantzd กับ Garrard ครับ kalan007 4/15/2009 3:18:29 PM 1195 6
#01896 Trip ช่วงสงกรานต์ ที่สิงคโปร์ ...... Phuc 4/10/2009 7:36:06 AM 1161 13
#01891 แผ่นโฆษณาแป้งน้ำพรรณงาม POK 4/7/2009 3:57:44 PM 1244 5
#01886 อวด!.. 3 TYME 3/30/2009 8:43:04 PM 1167 24
#01883 ดีใจได้แผ่นคนกับควาย petch 3/27/2009 9:11:32 PM 1371 7
#01880 หาถ่านไฟฉายตรากบไม่เจอ.....เจอแต่แพะ ไวนิล 3/24/2009 6:32:18 PM 1310 9
#01874 แผ่นเสียงแผ่นสุดท้าย? ตชด576 3/17/2009 7:04:21 PM 1207 5
#01873 อยากได้หรืออยากเห็นแผ่นเหล่านี้ครับ chais 3/16/2009 2:44:35 AM 1199 13
#01870 เพื่อน-แพง น้าเล็กนอนดึก 3/13/2009 12:07:14 PM 1401 13
#01856 อวด!.. 2 TYME 3/3/2009 1:28:17 AM 1154 26
#01853 วันนี้เอา THE SOUND OF MUSIC มาฝากครับ Penny Lane 3/2/2009 10:31:28 AM 1162 23
#01852 เมื่อคืนใครได้ดู"เป็ดน้อย"บ้าง sompob 3/1/2009 12:26:18 PM 1183 7
#01850 ย่ำเท้าตะลุยเดี่ยวล่าแผ่นเสียง ร้านเฮียปัก. กาโม่ 2/27/2009 8:16:46 PM 1392 7
#01847 my hobby mrblack 2/22/2009 7:42:34 PM 1172 16
#01846 ยั่วน้ำลายเล็กๆน้อยๆสำหรับขาร็อคครับ chais 2/21/2009 10:49:36 PM 1166 8
#01840 แผ่น 7" Speed 33 -1/3 RPM ตชด576 2/12/2009 8:43:36 PM 1176 11
#01837 ขอความรู้เรื่อง เครื่องเล่นแผ่นเสียงด้วยครับ mrblack 2/5/2009 8:18:35 PM 1175 2
#01834 ชั่วฟ้าดินสลาย สวรรค์มืด ตชด576 2/2/2009 3:17:00 PM 1192 12
#01833 อวดแผ่นเสียงเพลงจากญี่ปุ่น กาโม่ 2/1/2009 12:17:02 PM 1175 13
#01830 My Favorite Rock chais 1/23/2009 11:11:58 PM 1183 13
#01829 simply red in my room mrblack 1/23/2009 10:06:28 PM 1152 21
#01828 แผ่นขายดีมาก POK 1/23/2009 11:53:25 AM 1178 8
#01810 โชว์แผ่นหายากก่อนปีใหม่ให้ชมกันครับ POK 12/26/2008 12:39:14 PM 1195 9
#01808 SAWATDEE BPEE MAI'52 [[[[[SHOW AND SHOW]]]]] SUNDRY 12/25/2008 1:23:17 PM 1261 19
#01794 แผ่นเสียง"prechapon bunnag "กับเจ้าของตัวจริง webmaster 11/28/2008 4:54:37 PM 1172 5
#01786 ต้นฉบับ78 POK 11/18/2008 11:20:45 AM 1185 19
#01785 ที่ใหนมีเครื่องเล่นแผ่นเสียงใหม่ๆขายบ้างครับ rjthehero 11/16/2008 3:31:37 PM 1396 5
#01784 โชว์แผ่นสาวเอย POK 11/14/2008 11:39:48 AM 1169 10
#01782 อยากอัดแผ่นลง CD จะต้องทำไงครับ rjthehero 11/13/2008 5:20:49 PM 1194 5

หน้า: 1 | 2 | 3 | 4 | 5 | 6 | 7 | 8 | 9 | 10 | 11 | 12 | 13 | 14 | 15 | 16 | 17 | 18 | 19


กลับด้านบน
มีคำถามสงสัย โปรดติดต่อที่
site by Smokybyte